Location: Blanot
(47.1713°N, 4.2340°E)
Time: 00:30:33
(UTC+00:00)

Cosmos 1833 Rocket - Visible Passes

Search period start: 24 October 2020 00:00
Search period end: 03 November 2020 00:00
Orbit: 831 x 841 km, 71.0° (Epoch: 23 October)

Date Brightness Start Highest point End Pass type
(mag) Time Alt. Az. Time Alt. Az. Time Alt. Az.
24 Oct 5.7 02:58:59 10° ESE 03:00:01 10° E 03:01:04 10° E visible
24 Oct 3.0 04:37:16 10° SSW 04:42:52 70° ESE 04:48:30 10° NNE visible
25 Oct 3.1 04:20:34 10° SSW 04:26:08 65° ESE 04:31:45 10° NNE visible
26 Oct 3.2 04:03:53 10° S 04:09:25 60° ESE 04:14:59 10° NNE visible
27 Oct 3.3 03:48:50 20° S 03:52:42 56° ESE 03:58:14 10° NE visible
27 Oct 3.6 05:32:05 10° WSW 05:36:58 29° NW 05:41:52 10° N visible
28 Oct 3.4 03:33:50 34° SSE 03:35:59 51° ESE 03:41:28 10° NE visible
28 Oct 3.5 05:15:37 12° WSW 05:20:11 31° NW 05:25:11 10° NNE visible
29 Oct 3.5 03:18:34 45° SE 03:19:17 47° ESE 03:24:41 10° NE visible
29 Oct 3.4 05:00:19 20° W 05:03:23 33° NW 05:08:29 10° NNE visible
30 Oct 3.7 03:03:05 43° E 03:03:05 43° E 03:07:54 10° NE visible
30 Oct 3.3 04:44:50 29° W 04:46:37 35° NW 04:51:47 10° NNE visible
31 Oct 4.2 02:47:28 33° ENE 02:47:28 33° ENE 02:51:07 10° NE visible
31 Oct 3.2 04:29:12 36° WNW 04:29:50 37° NW 04:35:05 10° NNE visible
01 Nov 4.6 02:31:42 25° ENE 02:31:42 25° ENE 02:34:20 10° NE visible
01 Nov 3.2 04:13:26 39° NW 04:13:26 39° NW 04:18:23 10° NNE visible
02 Nov 5.1 02:15:52 18° NE 02:15:52 18° NE 02:17:32 10° NE visible
02 Nov 3.5 03:57:35 37° NNW 03:57:35 37° NNW 04:01:41 10° NNE visible
02 Nov 4.6 05:40:05 10° NW 05:41:51 11° NNW 05:43:37 10° NNW visible
